Weather History for Red Deer, AB

Change the Weather History Date:

Thursday, May 2, 2013

  Actual Average Record
Temperature  
Mean Temperature 48 °F -  
Max Temperature 69 °F 62 °F 80 °F (1998)
Min Temperature 27 °F 38 °F 17 °F (2005)
Degree Days  
Heating Degree Days 17    
Moisture  
Dew Point 23 °F    
Average Humidity 37    
Maximum Humidity 60    
Minimum Humidity 13    
Precipitation  
Precipitation 0.00 in 0.07 in - ()
Sea Level Pressure  
Sea Level Pressure 30.32 in    
Wind  
Wind Speed 6 mph ()    
Max Wind Speed 13 mph    
Max Gust Speed -    
Visibility 15.0 miles    
Events      
Averages and records for this station are not official NWS values.
T = Trace of Precipitation, MM = Missing Value Source: Averaged Metar Reports

Daily Weather History Graph

Daily Weather History Graph

Search for Another Location

Airport:

Trip Planner

Search our weather history database for the weather conditions in past years. The results will help you decide how hot, cold, wet, or windy it might be!

Date:

Astronomy

May. 02, 2013 Rise Set
Actual Time 6:02 AM MDT 9:03 PM MDT
Civil Twilight 5:23 AM MDT 9:42 PM MDT
Nautical Twilight 4:31 AM MDT 10:34 PM MDT
Astronomical Twilight 3:26 AM MDT 11:42 PM MDT
Moon 2:47 AM MDT (5/2) 1:04 PM MDT (5/2)
Length of Visible Light 16h 19m
Length of Day
15h 00m
Waning Gibbous, 47% of the Moon is Illuminated
May 2
Waning Gibbous
May 9
New
May 17
First Quarter
May 24
Full
May 31
Last Quarter

Hourly Weather History & Observations

Time (MDT) Temp. Windchill Dew Point Humidity Pressure Visibility Wind Dir Wind Speed Gust Speed Precip Events Conditions
12:00 AM 35 °F - 18 °F 35% 30.45 in 15 mi South 6.9 mph - -  
12:00 AM 35.6 °F 29.2 °F 17.6 °F 48% 30.45 in 15.0 mi South 8.1 mph - N/A   Clear
1:00 AM 32.0 °F 24.2 °F 17.6 °F 55% 30.45 in 15.0 mi SSW 9.2 mph - N/A   Clear
2:00 AM 32.0 °F 25.6 °F 17.6 °F 55% 30.45 in 15.0 mi South 6.9 mph - N/A   Partly Cloudy
3:00 AM 30.2 °F 23.4 °F 17.6 °F 60% 30.44 in 15.0 mi SW 6.9 mph - N/A   Partly Cloudy
4:00 AM 30.2 °F 23.4 °F 15.8 °F 55% 30.43 in 15.0 mi SSW 6.9 mph - N/A   Partly Cloudy
5:00 AM 28.4 °F - 15.8 °F 59% 30.43 in 15.0 mi Calm Calm - N/A   Partly Cloudy
6:00 AM 29 °F - 16 °F 46% 30.42 in 15 mi South 8.1 mph - -   Clear
6:00 AM 28.4 °F 20.4 °F 15.8 °F 59% 30.42 in 15.0 mi South 8.1 mph - N/A   Partly Cloudy
7:00 AM 32.0 °F 26.4 °F 19.4 °F 60% 30.41 in 15.0 mi South 5.8 mph - N/A   Scattered Clouds
8:00 AM 39.2 °F 35.0 °F 23.0 °F 52% 30.40 in 15.0 mi SW 5.8 mph - N/A   Mostly Cloudy
9:00 AM 46.4 °F 42.4 °F 23.0 °F 40% 30.37 in 15.0 mi SW 8.1 mph - N/A   Mostly Cloudy
10:00 AM 53.6 °F - 24.8 °F 33% 30.35 in 15.0 mi West 9.2 mph - N/A   Scattered Clouds
11:00 AM 59.0 °F - 24.8 °F 27% 30.33 in 15.0 mi South 12.7 mph - N/A   Mostly Cloudy
12:00 PM 61 °F - 23 °F 13% 30.29 in 15 mi South 2.3 mph - -   Scattered Clouds
12:00 PM 60.8 °F - 23.0 °F 23% 30.29 in 15.0 mi SSW 4.6 mph - N/A   Mostly Cloudy
1:00 PM 62.6 °F - 24.8 °F 24% 30.26 in 15.0 mi WSW 5.8 mph - N/A   Scattered Clouds
2:00 PM 64.4 °F - 26.6 °F 24% 30.24 in 15.0 mi South 4.6 mph - N/A   Mostly Cloudy
3:00 PM 66.2 °F - 24.8 °F 21% 30.22 in 15.0 mi South 4.6 mph - N/A   Mostly Cloudy
4:00 PM 66.2 °F - 26.6 °F 23% 30.20 in 15.0 mi WSW 11.5 mph - N/A   Mostly Cloudy
5:00 PM 68.0 °F - 28.4 °F 23% 30.18 in 15.0 mi West 9.2 mph - N/A   Mostly Cloudy
6:00 PM 66 °F - 28 °F 14% 30.18 in 15 mi WNW 5.8 mph - -   Mostly Cloudy
6:00 PM 66.2 °F - 28.4 °F 24% 30.18 in 15.0 mi WNW 8.1 mph - N/A   Mostly Cloudy
7:00 PM 60.8 °F - 32.0 °F 34% 30.18 in 15.0 mi NNW 4.6 mph - N/A   Overcast
8:00 PM 60.8 °F - 30.2 °F 31% 30.19 in 15.0 mi NNW 11.5 mph - N/A   Overcast
9:00 PM 60.8 °F - 30.2 °F 31% 30.19 in 15.0 mi NNW 11.5 mph - N/A   Overcast
10:00 PM 57.2 °F - 30.2 °F 36% 30.21 in 15.0 mi NNW 11.5 mph - N/A   Overcast
11:00 PM 57.2 °F - 32.0 °F 38% 30.22 in 15.0 mi NNW 6.9 mph - N/A   Overcast